Tracking 18843 objects as of 21-November-2017
HD Live streaming from Space Station
objects crossing your sky now

FENGYUN 1C DEB

Track FENGYUN 1C DEB now!
10-day predictions


NORAD ID: 36166
Int'l Code: 1999-025DSP
Perigee: 784.5 km
Apogee: 1,326.5 km
Inclination: 97.6 °
Period: 106.2 minutes
Semi major axis: 7426 km
RCS: 0.015 m2 (small)
Launch date: May 10, 1999
Source: People's Republic of China (PRC)
Launch site: Taiyaun Space Center, China (TSC)

Note: This is SATELLITE DEBRIS
aabbcc
Your satellite tracking list
Your tracking list is empty




NASA's NSSDC Master Catalog

Two Line Element Set (TLE):
1 36166U 99025DSP 17307.81399376  .00000593  00000-0  57147-3 0  9995
2 36166  97.5687 149.3695 0364920  43.4135 320.4982 13.56513423489087
Source of the keplerian elements: AFSPC